Skip Page Navigation
NASA JPL Caltech
NASA Logo - Jet Propulsion Laboratory + View the NASA Portal
+ Near-Earth Object (NEO) Program
Search JPL
JPL Home Earth Solar System Stars & Galaxies Technology
JPL Solar System Dynamics
BODIES ORBITS EPHEMERIDES TOOLS PHYSICAL DATA DISCOVERY FAQ SITE MAP
JPL Small-Body Database Browser
Search: [ help ]  
160510 (1990 RG1)
Classification: Mars-crossing Asteroid          SPK-ID: 2160510
Ephemeris | Orbit Diagram | Orbital Elements | Physical Parameters | Discovery Circumstances | Close-Approach Data ]

[ show orbit diagram ]
Orbital Elements at Epoch 2457000.5 (2014-Dec-09.0) TDB
Reference: JPL 7 (heliocentric ecliptic J2000)
 Element Value Uncertainty (1-sigma)   Units 
e .2670389578362034 1.0078e-07  
a 2.262313430304685 1.9103e-08 AU
q 1.658187609577276 2.2384e-07 AU
i 6.584003005036648 1.1566e-05 deg
node 359.5502209323305 6.0174e-05 deg
peri 27.98196956934357 6.5367e-05 deg
M 23.2409861674396 1.9656e-05 deg
tp 2456920.262084267329
(2014-Sep-19.76208427)
6.7575e-05 JED
period 1242.875386425299
3.40
1.5742e-05
4.31e-08
d
yr
n .289650920705265 3.6687e-09 deg/d
Q 2.866439251032094 2.4204e-08 AU
  Orbit Determination Parameters
   # obs. used (total)      394  
   data-arc span      8806 days (24.11 yr)  
   first obs. used      1990-09-14  
   last obs. used      2014-10-24  
   planetary ephem.      DE431  
   SB-pert. ephem.      SB431-BIG16  
   condition code      0  
   fit RMS      .53618  
   data source      ORB  
   producer      Otto Matic  
   solution date      2014-Nov-10 16:53:27  

Additional Information
 Earth MOID = .665401 AU 
 T_jup = 3.563 
[ show covariance matrix ]

Ephemeris | Orbit Diagram | Orbital Elements | Physical Parameters | Discovery Circumstances | Close-Approach Data ]

Physical Parameter Table
Parameter Symbol Value Units Sigma Reference Notes
absolute magnitude H 15.8 mag n/a MPO260167  

160510 (1990 RG1)          Discovered 1990-Sep-14 by Holt, H. E. at Palomar (675)
Reference: 20070828/Numbers.arcLast Updated: 2007-08-30

[ show close-approach data ]
Alternate Designations
 1990 RG1 = 2002 CQ151 
Ephemeris | Orbit Diagram | Orbital Elements | Physical Parameters | Discovery Circumstances | Close-Approach Data ]
ABOUT SSD CREDITS/AWARDS PRIVACY/COPYRIGHT GLOSSARY LINKS
FirstGov 2014-Dec-20 18:41 UT
(server date/time)  
NASA Home Page
Site Manager:   Donald K. Yeomans
Webmaster  Alan B. Chamberlin